Location: Hoover
(45.1124°N, 103.2678°W)
Time: 03:58:12
(UTC+00:00)

N. Korean satellite - Pass Details

Date: 29 November 2020
Orbit: 453 x 502 km, 97.2° (Epoch: 16 January)

Event Time Altitude Azimuth Distance (km) Brightness Sun altitude
Rises 12:52:22 0° 5° (N) 2,555 10.1 -13.3°
Reaches altitude 10° 12:54:29 10° 359° (N) 1,678 9.1 -12.9°
Maximum altitude 12:57:55 43° 287° (WNW) 703 6.9 -12.4°
Drops below altitude 10° 13:01:22 10° 215° (SW) 1,689 9.1 -11.8°
Sets 13:03:31 0° 209° (SSW) 2,573 10.1 -11.4°
